Avoca, PA

4:53 AM EST on November 20, 2019 (GMT -0500)
Wilkes-Barre-Scranton International

Weather History for KAVP - October, 2019

Change the Weather History Date:

Tuesday, October 22, 2019

  Actual Average Record
Temperature  
Mean Temperature 58 °F 49 °F  
Max Temperature 61 °F 59 °F 83 °F (1979)
Min Temperature 54 °F 39 °F 22 °F (1940)
Degree Days  
Heating Degree Days 7 16  
Month to date heating degree days 214 282  
Since 1 July heating degree days 252 444  
Cooling Degree Days 0 0  
Month to date cooling degree days 16 0  
Year to date cooling degree days 846 576  
Growing Degree Days 6 (Base 50)    
Moisture  
Dew Point 54 °F    
Average Humidity 86    
Maximum Humidity 100    
Minimum Humidity 72    
Precipitation  
Precipitation 0.66 in 0.10 in 1.12 in (1984)
Month to date precipitation 3.75 2.45  
Year to date precipitation 42.62 31.55  
Sea Level Pressure  
Sea Level Pressure 29.90 in    
Wind  
Wind Speed 4 mph (SSW)    
Max Wind Speed 14 mph    
Max Gust Speed 21 mph    
Visibility 6 miles    
Events Fog , Rain    
T = Trace of Precipitation, MM = Missing Value Source: NWS Daily Summary

Daily Weather History Graph

Daily Weather History Graph

Search for Another Location

Airport or City:

Astronomy

Oct. 22, 2019 Rise Set
Actual Time 7:22 AM EDT 6:11 PM EDT
Civil Twilight 6:54 AM EDT 6:39 PM EDT
Nautical Twilight 6:21 AM EDT 7:12 PM EDT
Astronomical Twilight 5:49 AM EDT 7:44 PM EDT
Moon 12:24 AM EDT (10/22) 3:24 PM EDT (10/22)
Length of Visible Light 11h 45m
Length of Day
10h 49m
Last Quarter, 37% of the Moon is Illuminated
Oct 22
Last Quarter
Oct 27
New
Nov 4
First Quarter
Nov 12
Full
Nov 19
Last Quarter

Hourly Weather History & Observations

Time (EDT) Temp. Dew Point Humidity Pressure Visibility Wind Dir Wind Speed Gust Speed Precip Events Conditions
12:54 AM 55.0 °F 48.0 °F 77% 30.04 in 10.0 mi Variable 4.6 mph - N/A   Mostly Cloudy
1:54 AM 57.0 °F 50.0 °F 77% 30.04 in 10.0 mi Variable 3.5 mph - N/A   Mostly Cloudy
2:54 AM 57.9 °F 50.0 °F 75% 30.06 in 10.0 mi SSW 6.9 mph - N/A   Overcast
3:07 AM 57.9 °F 50.0 °F 75% 30.06 in 10.0 mi Variable 3.5 mph - N/A   Overcast
3:54 AM 57.0 °F 48.9 °F 74% 30.04 in 10.0 mi SSW 8.1 mph - N/A   Mostly Cloudy
4:39 AM 57.0 °F 48.9 °F 74% 30.01 in 10.0 mi Variable 4.6 mph - N/A   Overcast
4:54 AM 57.0 °F 48.9 °F 74% 30.01 in 10.0 mi Variable 4.6 mph - N/A   Overcast
5:54 AM 57.0 °F 48.9 °F 74% 30.00 in 10.0 mi Variable 4.6 mph - N/A   Overcast
6:54 AM 57.0 °F 50.0 °F 77% 29.99 in 10.0 mi North - - N/A   Overcast
7:54 AM 57.0 °F 50.0 °F 77% 29.99 in 10.0 mi Calm Calm - N/A   Overcast
8:54 AM 55.9 °F 50.0 °F 80% 30.02 in 10.0 mi Calm Calm - N/A   Overcast
9:54 AM 55.0 °F 50.0 °F 83% 30.01 in 10.0 mi Variable 5.8 mph - N/A   Overcast
10:54 AM 54.0 °F 50.0 °F 86% 29.99 in 10.0 mi ESE 6.9 mph - N/A   Overcast
11:26 AM 55.9 °F 51.1 °F 84% 29.97 in 10.0 mi Variable 5.8 mph - N/A   Overcast
11:33 AM 55.9 °F 51.1 °F 84% 29.96 in 10.0 mi SE 8.1 mph - 0.00 in Rain Light Rain
11:54 AM 55.9 °F 51.1 °F 84% 29.94 in 10.0 mi Variable 5.8 mph - 0.00 in   Overcast
12:02 PM 57.0 °F 51.1 °F 81% 29.95 in 10.0 mi East 4.6 mph - N/A   Overcast
12:17 PM 57.0 °F 52.0 °F 83% 29.94 in 10.0 mi Variable 3.5 mph - N/A   Overcast
12:54 PM 59.0 °F 53.1 °F 81% 29.91 in 10.0 mi NE 6.9 mph - N/A   Overcast
1:54 PM 60.1 °F 53.1 °F 78% 29.86 in 10.0 mi Variable 6.9 mph 18.4 mph N/A   Overcast
2:54 PM 60.1 °F 54.0 °F 80% 29.82 in 10.0 mi Variable 5.8 mph - N/A   Overcast
3:54 PM 61.0 °F 54.0 °F 78% 29.80 in 10.0 mi North - - N/A   Overcast
4:54 PM 59.0 °F 55.0 °F 87% 29.82 in 5.0 mi Calm Calm - 0.04 in Rain Rain
5:36 PM 57.9 °F 55.9 °F 93% 29.83 in 1.8 mi NNE 3.5 mph - 0.05 in Rain Heavy Rain
5:47 PM 57.9 °F 55.9 °F 93% 29.83 in 3.0 mi East 4.6 mph - 0.10 in Rain Light Rain
5:54 PM 57.9 °F 55.9 °F 93% 29.82 in 3.0 mi ENE 3.5 mph - 0.11 in Rain Light Rain
6:07 PM 57.9 °F 55.9 °F 93% 29.82 in 5.0 mi NNE 5.8 mph - 0.00 in Rain Light Rain
6:54 PM 60.1 °F 55.9 °F 86% 29.79 in 7.0 mi Variable 4.6 mph - 0.02 in   Overcast
7:13 PM 57.9 °F 57.0 °F 97% 29.83 in 2.5 mi West 6.9 mph - 0.00 in Rain Heavy Rain
7:16 PM 57.9 °F 57.0 °F 97% 29.83 in 1.5 mi WNW 6.9 mph - 0.03 in Rain Heavy Rain
7:23 PM 57.9 °F 57.0 °F 97% 29.83 in 1.0 mi SW 3.5 mph - 0.11 in Rain Heavy Rain
7:31 PM 57.2 °F 57.2 °F 100% 29.84 in 1.2 mi Calm Calm - N/A Rain Heavy Rain
7:54 PM 57.9 °F 57.0 °F 97% 29.83 in 2.0 mi SSW 3.5 mph - 0.34 in Rain Heavy Rain
8:14 PM 57.9 °F 57.0 °F 97% 29.84 in 2.5 mi SSW 4.6 mph - 0.05 in Rain Light Rain
8:18 PM 57.9 °F 57.0 °F 97% 29.84 in 3.0 mi SSW 3.5 mph - 0.06 in Rain Light Rain
8:25 PM 57.9 °F 57.0 °F 97% 29.83 in 2.0 mi SSW 3.5 mph - 0.07 in Rain Heavy Rain
8:41 PM 57.9 °F 57.0 °F 97% 29.83 in 2.5 mi Calm Calm - 0.12 in Rain Rain
8:52 PM 57.2 °F 57.2 °F 100% 29.83 in 5.0 mi Calm Calm - 0.13 in Rain Light Rain
8:54 PM 57.9 °F 57.0 °F 97% 29.82 in 5.0 mi Calm Calm - 0.13 in Rain Light Rain
9:54 PM 57.9 °F 57.0 °F 97% 29.82 in 10.0 mi NNE 3.5 mph - 0.02 in   Overcast
10:42 PM 57.9 °F 55.9 °F 93% 29.83 in 1.8 mi Calm Calm - 0.00 in   Overcast
10:54 PM 57.9 °F 57.0 °F 97% 29.82 in 0.8 mi Calm Calm - 0.00 in   Overcast
11:12 PM 57.9 °F 57.0 °F 97% 29.83 in 1.0 mi SW 3.5 mph - N/A   Overcast
11:16 PM 57.9 °F 57.0 °F 97% 29.83 in 3.0 mi SW 3.5 mph - 0.00 in Rain Light Rain
11:31 PM 57.9 °F 57.0 °F 97% 29.82 in 7.0 mi WSW 5.8 mph - 0.00 in Rain Light Rain
11:38 PM 57.9 °F 57.0 °F 97% 29.83 in 1.8 mi WSW 5.8 mph - 0.00 in   Overcast
11:54 PM 57.9 °F 57.0 °F 97% 29.82 in 0.2 mi West 5.8 mph - 0.00 in Fog Fog